sat.trackr.live / text

‹ back to catalog

STARLINK-37243

NORAD 68608 · 2026-073G

PAYLOAD ACTIVE UNKNOWN

§ Identity

Operator
Country
US
Launch date
2026-04-07
Launch site
AFWTR
Launch vehicle
Mass (kg)
RCS (m²)

Purposes: comms

External: N2YO · Heavens-Above · Gunter

§ Orbital elements

Epoch: 2026-05-25T04:00:03.998880Z

Period
92.59 min
Inclination
97.2846°
Eccentricity
0.0002318
Mean motion
15.55196960 rev/d
Perigee alt
400.0 km
Apogee alt
403.2 km
Semi-major
6,779.7 km
B*
-4.4082e-2
RAAN
344.7632°
Arg perigee
86.2180°
Mean anomaly
97.5931°
Rev number
601

§ Raw data

STARLINK-372431 68608U 26073G   26145.16671295 -.02626721  00000+0 -44082-1 0  99972 68608  97.2846 344.7632 0002318  86.2180  97.5931 15.55196960  6012

JSON: /api/v1/satellites/68608 · /tle

For live sub-satellite position, see the globe view (requires WebGL).

§ Visibility from observer

Set your observer location to see the next 7 days of passes ≥ 10°. The values pass through the URL so the page stays shareable.

No JS? Fill the form by hand. The geolocation button needs JavaScript.